RH
83 87 83 83 83 84 81 77 74 72 74 75 74 72 66 64 59 53 49 48 47 47
75 83 81 79 78 79 78 76 74 75 73 72 70 69 68 66 61 55 53 50 49 49
68 72 75 75 74 77 80 82 78 76 74 74 74 74 70 64 60 55 54 51 51 51
69 73 79 83 81 78 71 70 71 74 75 73 73 73 70 67 62 57 54 54 52 52
71 73 78 76 74 71 72 72 75 73 73 69 67 65 64 67 61 57 59 57 56 56
63 71 74 72 72 75 74 70 67 65 65 67 61 58 58 62 62 61 63 63 62 61
45 52 57 59 61 61 59 56 53 50 49 48 52 52 54 54 55 60 60 61 63 62
40 41 44 45 46 48 48 47 47 45 44 44 43 42 43 51 51 54 58 62 66 64
43 44 45 46 48 48 48 48 48 47 46 46 47 47 47 46 48 53 57 60 61 64
49 50 50 50 51 52 53 52 50 49 50 51 52 51 53 54 55 57 60 62 66 70
56 55 55 54 57 61 61 60 59 58 59 58 57 58 61 61 63 64 66 68 68 68
65 63 63 65 64 65 65 63 63 64 64 63 64 66 66 66 66 66 67 69 68 63
73 73 73 73 70 69 69 67 68 67 65 64 68 71 69 67 68 64 53 43 40 38
73 78 80 79 75 74 71 70 68 67 67 67 73 75 72 62 57 48 43 40 38 43